sat.trackr.live / text

‹ back to catalog

ONEWEB-0369

NORAD 49295 · 2021-090S

PAYLOAD ACTIVE UNKNOWN

§ Identity

Operator
Country
UK
Launch date
2021-10-14
Launch site
VOSTO
Launch vehicle
Mass (kg)
RCS (m²)

Purposes: comms

External: N2YO · Heavens-Above · Gunter

§ Orbital elements

Epoch: 2026-05-24T23:34:07.666752Z

Period
109.11 min
Inclination
87.9150°
Eccentricity
0.0001796
Mean motion
13.19725953 rev/d
Perigee alt
1,184.4 km
Apogee alt
1,187.1 km
Semi-major
7,563.9 km
B*
-1.1702e-4
RAAN
309.6008°
Arg perigee
91.2836°
Mean anomaly
268.8503°
Rev number
22,335

§ Raw data

ONEWEB-03691 49295U 21090S   26144.98203318 -.00000034  00000+0 -11702-3 0  99942 49295  87.9150 309.6008 0001796  91.2836 268.8503 13.19725953223351

JSON: /api/v1/satellites/49295 · /tle

For live sub-satellite position, see the globe view (requires WebGL).

§ Visibility from observer

Set your observer location to see the next 7 days of passes ≥ 10°. The values pass through the URL so the page stays shareable.

No JS? Fill the form by hand. The geolocation button needs JavaScript.